BREEZE-M DEB (TANK), 42908

Orbit data source: Space-Track

BREEZE-M DEB (TANK), 42908 is space debris in HEO originally from a launch on Wed, 16 Aug 2017 UTC launched from the Tyuratam Missile And Space Complex (TTMTR). Debris objects in space refer to the collection of defunct objects orbiting the Earth. Examples of debris include non-operational satellites, rocket bodies, and fragments generated from explosions, collisions, or faulty payload assembly.

Loading next visibility...
Identifier
42908, 2017-046B
Orbit
HEO
Last TLE update
1 day ago
Origin
Manufacturer
Khrunichev
Mission
Spacecraft
Bus & Motor
BRIZ TANK, Unknown motor
Mass
~1,000 kg wet, 1,000 kg dry
Launch date (UTC)
2017-08-16 (8 years ago)
Launch vehicle
Unknown
Launch site
Tyuratam Missile And Space Complex (TTMTR)
Object type
Payload
Rocket body
Debris
Shape & HBR
Torus, 4 m
Radar Cross Section
8.218 m², Large (>1 m²)

Expand to show TLE details & history

TLE from 1 day ago
0 BREEZE-M DEB (TANK)
1 42908U 17046B   25128.59923969 -.00000119  00000-0  62931-3 0  9997
2 42908  48.4895 253.8955 7111954 342.6685   1.9359  2.37893188 65571
Epoch: 2025-05-08T14:22Z
Definitive object data (Epoch: 2025-05-08T14:22:54.309Z)
Latitude
0.00009°
Longitude
171.46457°
Altitude
594.831 km
Speed
9.875 km/s
True Right ascension
16h 55m 25s
True Declination
0° 00' 00"
Sunlit
Object was in full shadow at TLE epoch
Visualization TLE readout
Latitude
-44.37893°
Longitude
50.55003°
Altitude
6,003.334 km
Speed
6.901 km/s
Apparent Right ascension
11h 03m 01s
Apparent Declination
-56° 27' 38"
Sunlit
Object is in daylight
Visualization observer readout
Local Sidereal Time
04:16:52
Azimuth
136.395° SSE
Elevation
-38.288°
Doppler factor
1
Orbital elements
Apogee altitude
34,184.789 km
Perigee altitude
467.814 km
Semi-major axis
23,704.438 km
Eccentricity
0.7111954
Inclination
48.4895°
RAAN
253.8955°
Arg. of periapsis
342.6685°
True anomaly
16.1372°
Mean anomaly
1.9359°
Eccentric anomaly
6.66614°
Mean motion
0.5947 °/min
BSTAR
0.00062931
Orbital period
605.35 mins
Loading maneuver chart data...
Loading SW <> Apogee altitude chart data...
Loading historical data...
Loading historical data...
Loading historical data...
Loading historical data...
Loading historical data...
Loading historical data...
Loading historical data...
Other satellites on launch #46 in the year 2017 (2017-08-16 UTC)

BREEZE-M DEB (TANK) Visibility forecast

Observer location: undefined°, undefined°

Span
Click to sort rows by Start time (UTC) header in descending order
Start Az.
Max El. time (UTC)
Max El. Az.
Max El.
End time (UTC)
End Az.
208 mins2025-05-09 21:26:47.312Z308.008° NW2025-05-09 22:31:47.312Z286.938° WNW24.805°2025-05-10 00:54:47.312Z276.693° WNW
172 mins2025-05-10 17:13:47.312Z299.483° NW2025-05-10 18:30:47.312Z252.859° W44.493°2025-05-10 20:05:47.312Z221.614° SW
|